Time,TemperatureF,DewpointF,PressureIn,WindDirection,WindDirectionDegrees,WindSpeedMPH,WindSpeedGustMPH,Humidity,HourlyPrecipIn,Conditions,Clouds,dailyrainin,SoftwareType,DateUTC
2013-04-29 00:04:00,43.9,37.2,30.21,SSE,155,0.0,0.0,77,0.00,,,0.00,Wunderground v.1.15,2013-04-29 04:04:00,
2013-04-29 00:09:00,43.8,37.1,30.21,SSE,155,0.0,0.0,77,0.00,,,0.00,Wunderground v.1.15,2013-04-29 04:09:00,
2013-04-29 00:14:00,43.8,37.1,30.21,SSE,155,0.0,0.0,77,0.00,,,0.00,Wunderground v.1.15,2013-04-29 04:14:00,
2013-04-29 00:19:00,43.6,36.9,30.22,SSE,155,0.0,0.0,77,0.00,,,0.00,Wunderground v.1.15,2013-04-29 04:19:00,
2013-04-29 00:24:00,43.5,36.8,30.22,SSE,155,0.0,0.0,77,0.00,,,0.00,Wunderground v.1.15,2013-04-29 04:24:00,
2013-04-29 00:29:00,43.3,36.6,30.22,SSE,155,0.0,0.0,77,0.00,,,0.00,Wunderground v.1.15,2013-04-29 04:29:00,
2013-04-29 00:34:00,43.3,36.6,30.22,SSE,155,0.0,0.0,77,0.00,,,0.00,Wunderground v.1.15,2013-04-29 04:34:00,
2013-04-29 00:44:00,43.2,36.8,30.22,SSE,155,0.0,0.0,78,0.00,,,0.00,Wunderground v.1.15,2013-04-29 04:44:00,
2013-04-29 00:49:00,43.2,36.8,30.22,SSE,155,0.0,0.0,78,0.00,,,0.00,Wunderground v.1.15,2013-04-29 04:49:00,
2013-04-29 00:54:00,43.2,36.1,30.22,SSE,155,0.0,0.0,76,0.00,,,0.00,Wunderground v.1.15,2013-04-29 04:54:00,
2013-04-29 00:59:00,43.2,35.5,30.22,SSE,155,0.0,0.0,74,0.00,,,0.00,Wunderground v.1.15,2013-04-29 04:59:00,
2013-04-29 01:09:00,43.2,34.8,30.22,SSE,155,0.0,0.0,72,0.00,,,0.00,Wunderground v.1.15,2013-04-29 05:09:00,
2013-04-29 01:19:00,43.3,35.6,30.21,SSE,155,0.0,0.0,74,0.00,,,0.00,Wunderground v.1.15,2013-04-29 05:19:00,
2013-04-29 01:24:00,43.3,35.9,30.21,SSE,155,0.0,0.0,75,0.00,,,0.00,Wunderground v.1.15,2013-04-29 05:24:00,
2013-04-29 01:29:00,43.5,35.8,30.21,SSE,155,0.0,0.0,74,0.00,,,0.00,Wunderground v.1.15,2013-04-29 05:29:00,
2013-04-29 01:34:00,43.5,36.1,30.21,SSE,155,0.0,0.0,75,0.00,,,0.00,Wunderground v.1.15,2013-04-29 05:34:00,
2013-04-29 01:39:00,43.5,36.4,30.21,SSE,155,0.0,0.0,76,0.00,,,0.00,Wunderground v.1.15,2013-04-29 05:39:00,
2013-04-29 01:44:00,43.5,36.1,30.21,SSE,155,0.0,0.0,75,0.00,,,0.00,Wunderground v.1.15,2013-04-29 05:44:00,
2013-04-29 01:54:00,43.5,36.1,30.21,SSE,155,0.0,0.0,75,0.00,,,0.00,Wunderground v.1.15,2013-04-29 05:54:00,
2013-04-29 01:59:00,43.3,36.2,30.21,SSE,155,0.0,0.0,76,0.00,,,0.00,Wunderground v.1.15,2013-04-29 05:59:00,
2013-04-29 02:04:00,43.3,36.2,30.21,SSE,155,0.0,0.0,76,0.00,,,0.00,Wunderground v.1.15,2013-04-29 06:04:00,
2013-04-29 02:09:00,43.2,36.1,30.21,SSE,155,0.0,0.0,76,0.00,,,0.00,Wunderground v.1.15,2013-04-29 06:09:00,
2013-04-29 02:14:00,43.1,36.4,30.21,SSE,155,0.0,0.0,77,0.00,,,0.00,Wunderground v.1.15,2013-04-29 06:14:00,
2013-04-29 02:24:00,42.9,36.5,30.21,SSE,155,0.0,0.0,78,0.00,,,0.00,Wunderground v.1.15,2013-04-29 06:24:00,
2013-04-29 02:29:00,42.8,36.4,30.21,SSE,155,0.0,0.0,78,0.00,,,0.00,Wunderground v.1.15,2013-04-29 06:29:00,
2013-04-29 02:34:00,42.6,36.2,30.20,SSE,155,0.0,0.0,78,0.00,,,0.00,Wunderground v.1.15,2013-04-29 06:34:00,
2013-04-29 02:39:00,42.5,36.1,30.20,SSE,155,0.0,0.0,78,0.00,,,0.00,Wunderground v.1.15,2013-04-29 06:39:00,
2013-04-29 02:44:00,42.3,36.3,30.20,SSE,155,0.0,0.0,79,0.00,,,0.00,Wunderground v.1.15,2013-04-29 06:44:00,
2013-04-29 02:49:00,42.2,36.5,30.20,SSE,155,0.0,0.0,80,0.00,,,0.00,Wunderground v.1.15,2013-04-29 06:49:00,
2013-04-29 02:59:00,41.9,36.2,30.20,SSE,155,0.0,0.0,80,0.00,,,0.00,Wunderground v.1.15,2013-04-29 06:59:00,
2013-04-29 03:04:00,41.8,36.1,30.19,SSE,155,0.0,0.0,80,0.00,,,0.00,Wunderground v.1.15,2013-04-29 07:04:00,
2013-04-29 03:09:00,41.6,36.2,30.19,SSE,155,0.0,0.0,81,0.00,,,0.00,Wunderground v.1.15,2013-04-29 07:09:00,
2013-04-29 03:14:00,41.5,36.1,30.19,SSE,155,0.0,0.0,81,0.00,,,0.00,Wunderground v.1.15,2013-04-29 07:14:00,
2013-04-29 03:19:00,41.3,35.9,30.19,SSE,155,0.0,0.0,81,0.00,,,0.00,Wunderground v.1.15,2013-04-29 07:19:00,
2013-04-29 03:29:00,41.1,36.0,30.19,SSE,155,0.0,0.0,82,0.00,,,0.00,Wunderground v.1.15,2013-04-29 07:29:00,
2013-04-29 03:34:00,40.9,35.8,30.19,SSE,155,0.0,0.0,82,0.00,,,0.00,Wunderground v.1.15,2013-04-29 07:34:00,
2013-04-29 03:39:00,40.8,35.7,30.19,SSE,155,0.0,0.0,82,0.00,,,0.00,Wunderground v.1.15,2013-04-29 07:39:00,
2013-04-29 03:44:00,40.8,36.0,30.19,SSE,155,0.0,0.0,83,0.00,,,0.00,Wunderground v.1.15,2013-04-29 07:44:00,
2013-04-29 03:54:00,40.5,35.7,30.19,SSE,155,0.0,0.0,83,0.00,,,0.00,Wunderground v.1.15,2013-04-29 07:54:00,
2013-04-29 04:04:00,40.3,35.5,30.19,SSE,155,0.0,0.0,83,0.00,,,0.00,Wunderground v.1.15,2013-04-29 08:04:00,
2013-04-29 04:09:00,40.2,35.4,30.19,SSE,155,0.0,0.0,83,0.00,,,0.00,Wunderground v.1.15,2013-04-29 08:09:00,
2013-04-29 04:14:00,40.2,36.1,30.19,SSE,155,0.0,0.0,85,0.00,,,0.00,Wunderground v.1.15,2013-04-29 08:14:00,
2013-04-29 04:19:00,40.1,36.0,30.20,SSE,155,0.0,0.0,85,0.00,,,0.00,Wunderground v.1.15,2013-04-29 08:19:00,
2013-04-29 04:24:00,40.1,36.0,30.20,SSE,155,0.0,0.0,85,0.00,,,0.00,Wunderground v.1.15,2013-04-29 08:24:00,
2013-04-29 04:29:00,39.9,35.8,30.20,SSE,155,0.0,0.0,85,0.00,,,0.00,Wunderground v.1.15,2013-04-29 08:29:00,
2013-04-29 04:39:00,39.8,35.7,30.20,SSE,155,0.0,0.0,85,0.00,,,0.00,Wunderground v.1.15,2013-04-29 08:39:00,
2013-04-29 04:44:00,39.6,35.2,30.20,SSE,155,0.0,0.0,84,0.00,,,0.00,Wunderground v.1.15,2013-04-29 08:44:00,
2013-04-29 04:49:00,39.6,35.2,30.20,SSE,155,0.0,0.0,84,0.00,,,0.00,Wunderground v.1.15,2013-04-29 08:49:00,
2013-04-29 04:54:00,39.5,35.1,30.20,SSE,155,0.0,0.0,84,0.00,,,0.00,Wunderground v.1.15,2013-04-29 08:54:00,
2013-04-29 04:59:00,39.3,34.9,30.20,SSE,155,0.0,0.0,84,0.00,,,0.00,Wunderground v.1.15,2013-04-29 08:59:00,
2013-04-29 05:09:00,39.2,34.8,30.20,SSE,155,0.0,0.0,84,0.00,,,0.00,Wunderground v.1.15,2013-04-29 09:09:00,
2013-04-29 05:14:00,39.1,34.4,30.20,SSE,155,0.0,0.0,83,0.00,,,0.00,Wunderground v.1.15,2013-04-29 09:14:00,
2013-04-29 05:19:00,38.9,34.2,30.20,SSE,155,0.0,0.0,83,0.00,,,0.00,Wunderground v.1.15,2013-04-29 09:19:00,
2013-04-29 05:24:00,38.8,34.4,30.20,SSE,155,0.0,0.0,84,0.00,,,0.00,Wunderground v.1.15,2013-04-29 09:24:00,
2013-04-29 05:29:00,38.8,34.7,30.20,SSE,155,0.0,0.0,85,0.00,,,0.00,Wunderground v.1.15,2013-04-29 09:29:00,
2013-04-29 05:34:00,38.6,34.2,30.20,SSE,155,0.0,0.0,84,0.00,,,0.00,Wunderground v.1.15,2013-04-29 09:34:00,
2013-04-29 05:44:00,38.5,34.1,30.20,SSE,155,0.0,0.0,84,0.00,,,0.00,Wunderground v.1.15,2013-04-29 09:44:00,
2013-04-29 05:49:00,38.3,34.2,30.20,SSE,155,0.0,0.0,85,0.00,,,0.00,Wunderground v.1.15,2013-04-29 09:49:00,
2013-04-29 05:54:00,38.3,34.2,30.20,SSE,155,0.0,0.0,85,0.00,,,0.00,Wunderground v.1.15,2013-04-29 09:54:00,
2013-04-29 05:59:00,38.3,34.5,30.20,SSE,155,0.0,0.0,86,0.00,,,0.00,Wunderground v.1.15,2013-04-29 09:59:00,
2013-04-29 06:04:00,38.3,34.8,30.21,SSE,155,0.0,0.0,87,0.00,,,0.00,Wunderground v.1.15,2013-04-29 10:04:00,
2013-04-29 06:09:00,38.3,35.1,30.21,SSE,155,0.0,0.0,88,0.00,,,0.00,Wunderground v.1.15,2013-04-29 10:09:00,
2013-04-29 06:19:00,38.3,35.3,30.21,SSE,155,0.0,0.0,89,0.00,,,0.00,Wunderground v.1.15,2013-04-29 10:19:00,
2013-04-29 06:24:00,38.3,35.3,30.21,SSE,155,0.0,0.0,89,0.00,,,0.00,Wunderground v.1.15,2013-04-29 10:24:00,
2013-04-29 06:29:00,38.3,35.3,30.21,SSE,155,0.0,0.0,89,0.00,,,0.00,Wunderground v.1.15,2013-04-29 10:29:00,
2013-04-29 06:34:00,38.5,35.5,30.21,SSE,155,0.0,0.0,89,0.00,,,0.00,Wunderground v.1.15,2013-04-29 10:34:00,
2013-04-29 06:39:00,38.5,35.8,30.21,SSE,155,0.0,0.0,90,0.00,,,0.00,Wunderground v.1.15,2013-04-29 10:39:00,
2013-04-29 06:49:00,38.8,36.1,30.21,SSE,155,0.0,0.0,90,0.00,,,0.00,Wunderground v.1.15,2013-04-29 10:49:00,
2013-04-29 06:54:00,38.9,36.5,30.21,SSE,155,0.0,0.0,91,0.00,,,0.00,Wunderground v.1.15,2013-04-29 10:54:00,
2013-04-29 06:59:00,39.1,36.7,30.21,SSE,155,0.0,0.0,91,0.00,,,0.00,Wunderground v.1.15,2013-04-29 10:59:00,
2013-04-29 07:04:00,39.3,36.9,30.22,SSE,155,0.0,0.0,91,0.00,,,0.00,Wunderground v.1.15,2013-04-29 11:04:00,
2013-04-29 07:09:00,39.5,37.4,30.22,SSE,155,0.0,0.0,92,0.00,,,0.00,Wunderground v.1.15,2013-04-29 11:09:00,
2013-04-29 07:14:00,39.8,37.7,30.22,SSE,155,0.0,0.0,92,0.00,,,0.00,Wunderground v.1.15,2013-04-29 11:14:00,
2013-04-29 07:24:00,40.2,38.1,30.23,SSE,155,0.0,0.0,92,0.00,,,0.00,Wunderground v.1.15,2013-04-29 11:24:00,
2013-04-29 07:29:00,40.5,38.6,30.23,SSE,155,0.0,0.0,93,0.00,,,0.00,Wunderground v.1.15,2013-04-29 11:29:00,
2013-04-29 07:34:00,40.8,38.9,30.23,SSE,155,0.0,0.0,93,0.00,,,0.00,Wunderground v.1.15,2013-04-29 11:34:00,
2013-04-29 07:39:00,41.1,39.0,30.23,SSE,155,0.0,0.0,92,0.00,,,0.00,Wunderground v.1.15,2013-04-29 11:39:00,
2013-04-29 07:44:00,41.2,39.1,30.23,SSE,155,0.0,0.0,92,0.00,,,0.00,Wunderground v.1.15,2013-04-29 11:44:00,
2013-04-29 07:54:00,41.9,39.5,30.23,SSE,155,0.0,0.0,91,0.00,,,0.00,Wunderground v.1.15,2013-04-29 11:54:00,
2013-04-29 07:59:00,42.2,39.5,30.23,SSE,155,0.0,0.0,90,0.00,,,0.00,Wunderground v.1.15,2013-04-29 11:59:00,
2013-04-29 08:04:00,42.6,39.9,30.23,SSE,155,0.0,0.0,90,0.00,,,0.00,Wunderground v.1.15,2013-04-29 12:04:00,
2013-04-29 08:09:00,42.9,39.9,30.23,SSE,155,0.0,0.0,89,0.00,,,0.00,Wunderground v.1.15,2013-04-29 12:09:00,
2013-04-29 08:14:00,43.3,40.0,30.23,SSE,155,0.0,0.0,88,0.00,,,0.00,Wunderground v.1.15,2013-04-29 12:14:00,
2013-04-29 08:24:00,44.2,40.6,30.23,SSE,155,0.0,0.0,87,0.00,,,0.00,Wunderground v.1.15,2013-04-29 12:24:00,
2013-04-29 08:29:00,44.8,40.9,30.23,SSE,155,0.0,0.0,86,0.00,,,0.00,Wunderground v.1.15,2013-04-29 12:29:00,
2013-04-29 08:39:00,46.0,42.0,30.23,SSE,155,0.0,0.0,86,0.00,,,0.00,Wunderground v.1.15,2013-04-29 12:39:00,
2013-04-29 08:44:00,46.8,42.5,30.23,SSE,155,0.0,0.0,85,0.00,,,0.00,Wunderground v.1.15,2013-04-29 12:44:00,
2013-04-29 08:49:00,47.9,43.3,30.22,SSE,155,0.0,0.0,84,0.00,,,0.00,Wunderground v.1.15,2013-04-29 12:49:00,
2013-04-29 08:54:00,49.5,42.9,30.22,SSE,161,0.0,0.0,78,0.00,,,0.00,Wunderground v.1.15,2013-04-29 12:54:00,
2013-04-29 09:04:00,51.7,44.4,30.21,SE,141,0.0,0.0,76,0.00,,,0.00,Wunderground v.1.15,2013-04-29 13:04:00,
2013-04-29 09:09:00,52.8,44.4,30.21,SW,226,0.0,0.0,73,0.00,,,0.00,Wunderground v.1.15,2013-04-29 13:09:00,
2013-04-29 09:14:00,53.9,44.3,30.21,South,191,0.0,0.0,70,0.00,,,0.00,Wunderground v.1.15,2013-04-29 13:14:00,
2013-04-29 09:19:00,54.7,45.1,30.22,SSW,206,0.0,0.0,70,0.00,,,0.00,Wunderground v.1.15,2013-04-29 13:19:00,
2013-04-29 09:24:00,55.6,44.8,30.22,SSW,200,0.0,0.0,67,0.00,,,0.00,Wunderground v.1.15,2013-04-29 13:24:00,
2013-04-29 09:34:00,56.6,45.0,30.21,SSW,198,0.0,0.0,65,0.00,,,0.00,Wunderground v.1.15,2013-04-29 13:34:00,
2013-04-29 09:39:00,57.0,46.1,30.21,SW,234,0.0,0.0,67,0.00,,,0.00,Wunderground v.1.15,2013-04-29 13:39:00,
2013-04-29 09:44:00,57.5,45.0,30.21,SW,234,0.0,0.0,63,0.00,,,0.00,Wunderground v.1.15,2013-04-29 13:44:00,
2013-04-29 09:49:00,58.0,44.6,30.21,SSW,212,0.0,0.0,61,0.00,,,0.00,Wunderground v.1.15,2013-04-29 13:49:00,
2013-04-29 09:54:00,58.4,45.4,30.21,SW,219,0.0,0.0,62,0.00,,,0.00,Wunderground v.1.15,2013-04-29 13:54:00,
2013-04-29 09:59:00,58.7,44.8,30.21,SSE,162,0.0,2.0,60,0.00,,,0.00,Wunderground v.1.15,2013-04-29 13:59:00,
2013-04-29 10:09:00,59.8,45.0,30.21,WNW,289,0.0,0.0,58,0.00,,,0.00,Wunderground v.1.15,2013-04-29 14:09:00,
2013-04-29 10:14:00,60.5,45.6,30.21,SSW,209,0.0,3.0,58,0.00,,,0.00,Wunderground v.1.15,2013-04-29 14:14:00,
2013-04-29 10:19:00,61.0,45.2,30.21,West,268,0.0,2.0,56,0.00,,,0.00,Wunderground v.1.15,2013-04-29 14:19:00,
2013-04-29 10:24:00,61.6,44.8,30.21,SW,220,1.0,2.0,54,0.00,,,0.00,Wunderground v.1.15,2013-04-29 14:24:00,
2013-04-29 10:29:00,62.0,45.2,30.21,West,272,1.0,1.0,54,0.00,,,0.00,Wunderground v.1.15,2013-04-29 14:29:00,
2013-04-29 10:39:00,62.6,44.7,30.21,SSE,168,0.0,0.0,52,0.00,,,0.00,Wunderground v.1.15,2013-04-29 14:39:00,
2013-04-29 10:44:00,63.1,46.2,30.21,SSE,168,0.0,0.0,54,0.00,,,0.00,Wunderground v.1.15,2013-04-29 14:44:00,
2013-04-29 10:49:00,63.9,46.4,30.20,SSE,168,0.0,0.0,53,0.00,,,0.00,Wunderground v.1.15,2013-04-29 14:49:00,
2013-04-29 10:54:00,64.7,45.6,30.20,SSW,210,0.0,1.0,50,0.00,,,0.00,Wunderground v.1.15,2013-04-29 14:54:00,
2013-04-29 10:59:00,65.2,44.5,30.20,SE,140,0.0,0.0,47,0.00,,,0.00,Wunderground v.1.15,2013-04-29 14:59:00,
2013-04-29 11:04:00,65.6,46.5,30.20,SSW,208,1.0,1.0,50,0.00,,,0.00,Wunderground v.1.15,2013-04-29 15:04:00,
2013-04-29 11:14:00,66.0,44.0,30.20,SSW,200,1.0,2.0,45,0.00,,,0.00,Wunderground v.1.15,2013-04-29 15:14:00,
2013-04-29 11:19:00,66.4,44.4,30.20,SW,232,1.0,3.0,45,0.00,,,0.00,Wunderground v.1.15,2013-04-29 15:19:00,
2013-04-29 11:24:00,66.8,44.8,30.20,West,277,0.0,3.0,45,0.00,,,0.00,Wunderground v.1.15,2013-04-29 15:24:00,
2013-04-29 11:34:00,67.9,44.6,30.19,SW,236,1.0,2.0,43,0.00,,,0.00,Wunderground v.1.15,2013-04-29 15:34:00,
2013-04-29 11:39:00,68.4,43.1,30.19,SW,234,1.0,2.0,40,0.00,,,0.00,Wunderground v.1.15,2013-04-29 15:39:00,
2013-04-29 11:49:00,68.3,44.3,30.19,SW,234,1.0,2.0,42,0.00,,,0.00,Wunderground v.1.15,2013-04-29 15:49:00,
2013-04-29 11:54:00,68.1,44.7,30.19,WSW,243,1.0,2.0,43,0.00,,,0.00,Wunderground v.1.15,2013-04-29 15:54:00,
2013-04-29 11:59:00,68.4,43.8,30.19,West,281,1.0,2.0,41,0.00,,,0.00,Wunderground v.1.15,2013-04-29 15:59:00,
2013-04-29 12:04:00,68.4,42.5,30.19,WNW,294,0.0,2.0,39,0.00,,,0.00,Wunderground v.1.15,2013-04-29 16:04:00,
2013-04-29 12:09:00,68.6,41.3,30.19,West,274,0.0,0.0,37,0.00,,,0.00,Wunderground v.1.15,2013-04-29 16:09:00,
2013-04-29 12:19:00,68.4,44.4,30.18,SE,140,0.0,1.0,42,0.00,,,0.00,Wunderground v.1.15,2013-04-29 16:19:00,
2013-04-29 12:24:00,68.8,43.5,30.18,SW,230,0.0,1.0,40,0.00,,,0.00,Wunderground v.1.15,2013-04-29 16:24:00,
2013-04-29 12:29:00,69.4,44.7,30.18,SW,230,0.0,0.0,41,0.00,,,0.00,Wunderground v.1.15,2013-04-29 16:29:00,
2013-04-29 12:34:00,70.1,44.6,30.18,SW,215,1.0,1.0,40,0.00,,,0.00,Wunderground v.1.15,2013-04-29 16:34:00,
2013-04-29 12:39:00,70.3,42.8,30.18,WSW,241,1.0,1.0,37,0.00,,,0.00,Wunderground v.1.15,2013-04-29 16:39:00,
2013-04-29 12:44:00,70.1,43.3,30.18,SW,219,1.0,1.0,38,0.00,,,0.00,Wunderground v.1.15,2013-04-29 16:44:00,
2013-04-29 12:54:00,69.9,45.8,30.17,SW,226,0.0,1.0,42,0.00,,,0.00,Wunderground v.1.15,2013-04-29 16:54:00,
2013-04-29 12:59:00,70.4,44.9,30.17,SW,232,1.0,1.0,40,0.00,,,0.00,Wunderground v.1.15,2013-04-29 16:59:00,
2013-04-29 13:04:00,70.4,42.2,30.17,SW,234,2.0,2.0,36,0.00,,,0.00,Wunderground v.1.15,2013-04-29 17:04:00,
2013-04-29 13:09:00,70.1,43.3,30.17,WSW,244,1.0,1.0,38,0.00,,,0.00,Wunderground v.1.15,2013-04-29 17:09:00,
2013-04-29 13:14:00,70.4,43.6,30.17,West,278,1.0,3.0,38,0.00,,,0.00,Wunderground v.1.15,2013-04-29 17:14:00,
2013-04-29 13:24:00,70.1,42.6,30.16,SW,226,2.0,3.0,37,0.00,,,0.00,Wunderground v.1.15,2013-04-29 17:24:00,
2013-04-29 13:29:00,69.6,42.9,30.16,SW,229,1.0,2.0,38,0.00,,,0.00,Wunderground v.1.15,2013-04-29 17:29:00,
2013-04-29 13:34:00,69.6,43.5,30.16,SE,130,1.0,2.0,39,0.00,,,0.00,Wunderground v.1.15,2013-04-29 17:34:00,
2013-04-29 13:39:00,69.9,43.8,30.16,WSW,237,1.0,1.0,39,0.00,,,0.00,Wunderground v.1.15,2013-04-29 17:39:00,
2013-04-29 13:44:00,69.8,41.6,30.16,SW,220,0.0,1.0,36,0.00,,,0.00,Wunderground v.1.15,2013-04-29 17:44:00,
2013-04-29 13:49:00,69.6,43.5,30.16,SE,134,0.0,0.0,39,0.00,,,0.00,Wunderground v.1.15,2013-04-29 17:49:00,
2013-04-29 13:59:00,69.1,43.1,30.16,ESE,112,0.0,1.0,39,0.00,,,0.00,Wunderground v.1.15,2013-04-29 17:59:00,
2013-04-29 14:04:00,68.9,42.9,30.16,ESE,112,0.0,1.0,39,0.00,,,0.00,Wunderground v.1.15,2013-04-29 18:04:00,
2013-04-29 14:09:00,68.9,43.6,30.16,WSW,254,0.0,0.0,40,0.00,,,0.00,Wunderground v.1.15,2013-04-29 18:09:00,
2013-04-29 14:14:00,69.4,45.3,30.16,East,100,0.0,1.0,42,0.00,,,0.00,Wunderground v.1.15,2013-04-29 18:14:00,
2013-04-29 14:19:00,70.1,43.3,30.15,SW,236,0.0,0.0,38,0.00,,,0.00,Wunderground v.1.15,2013-04-29 18:19:00,
2013-04-29 14:29:00,70.3,43.5,30.15,SW,227,0.0,0.0,38,0.00,,,0.00,Wunderground v.1.15,2013-04-29 18:29:00,
2013-04-29 14:34:00,70.1,41.9,30.15,SSE,150,0.0,0.0,36,0.00,,,0.00,Wunderground v.1.15,2013-04-29 18:34:00,
2013-04-29 14:39:00,69.6,42.9,30.15,West,261,1.0,2.0,38,0.00,,,0.00,Wunderground v.1.15,2013-04-29 18:39:00,
2013-04-29 14:44:00,69.1,42.4,30.15,SW,226,1.0,2.0,38,0.00,,,0.00,Wunderground v.1.15,2013-04-29 18:44:00,
2013-04-29 14:49:00,69.3,43.3,30.15,SE,138,1.0,1.0,39,0.00,,,0.00,Wunderground v.1.15,2013-04-29 18:49:00,
2013-04-29 14:59:00,68.8,41.5,30.15,SW,232,0.0,1.0,37,0.00,,,0.00,Wunderground v.1.15,2013-04-29 18:59:00,
2013-04-29 15:04:00,68.8,42.1,30.14,WSW,246,0.0,7.0,38,0.00,,,0.00,Wunderground v.1.15,2013-04-29 19:04:00,
2013-04-29 15:14:00,69.3,41.9,30.14,SW,229,1.0,2.0,37,0.00,,,0.00,Wunderground v.1.15,2013-04-29 19:14:00,
2013-04-29 15:19:00,69.8,42.3,30.14,WNW,298,1.0,1.0,37,0.00,,,0.00,Wunderground v.1.15,2013-04-29 19:19:00,
2013-04-29 15:24:00,70.3,41.3,30.14,SW,233,2.0,4.0,35,0.00,,,0.00,Wunderground v.1.15,2013-04-29 19:24:00,
2013-04-29 15:29:00,70.6,43.1,30.14,WSW,253,2.0,2.0,37,0.00,,,0.00,Wunderground v.1.15,2013-04-29 19:29:00,
2013-04-29 15:39:00,70.9,44.0,30.13,SW,229,1.0,2.0,38,0.00,,,0.00,Wunderground v.1.15,2013-04-29 19:39:00,
2013-04-29 15:44:00,70.6,41.6,30.13,SW,227,2.0,2.0,35,0.00,,,0.00,Wunderground v.1.15,2013-04-29 19:44:00,
2013-04-29 15:49:00,70.3,42.1,30.13,SW,216,2.0,3.0,36,0.00,,,0.00,Wunderground v.1.15,2013-04-29 19:49:00,
2013-04-29 15:54:00,69.8,41.6,30.13,WSW,239,3.0,3.0,36,0.00,,,0.00,Wunderground v.1.15,2013-04-29 19:54:00,
2013-04-29 15:59:00,69.4,41.3,30.13,SW,226,2.0,4.0,36,0.00,,,0.00,Wunderground v.1.15,2013-04-29 19:59:00,
2013-04-29 16:09:00,69.1,41.0,30.13,SW,230,2.0,6.0,36,0.00,,,0.00,Wunderground v.1.15,2013-04-29 20:09:00,
2013-04-29 16:14:00,68.8,41.5,30.13,SW,220,2.0,6.0,37,0.00,,,0.00,Wunderground v.1.15,2013-04-29 20:14:00,
2013-04-29 16:19:00,68.3,40.3,30.13,SSW,213,2.0,2.0,36,0.00,,,0.00,Wunderground v.1.15,2013-04-29 20:19:00,
2013-04-29 16:24:00,68.1,41.5,30.13,WSW,243,2.0,2.0,38,0.00,,,0.00,Wunderground v.1.15,2013-04-29 20:24:00,
2013-04-29 16:29:00,67.9,42.0,30.13,WSW,240,1.0,2.0,39,0.00,,,0.00,Wunderground v.1.15,2013-04-29 20:29:00,
2013-04-29 16:34:00,67.6,40.4,30.13,SSW,205,2.0,2.0,37,0.00,,,0.00,Wunderground v.1.15,2013-04-29 20:34:00,
2013-04-29 16:44:00,67.3,40.1,30.13,ESE,107,3.0,3.0,37,0.00,,,0.00,Wunderground v.1.15,2013-04-29 20:44:00,
2013-04-29 16:49:00,67.1,39.9,30.14,SW,220,2.0,2.0,37,0.00,,,0.00,Wunderground v.1.15,2013-04-29 20:49:00,
2013-04-29 16:54:00,66.9,39.8,30.14,ESE,113,2.0,5.0,37,0.00,,,0.00,Wunderground v.1.15,2013-04-29 20:54:00,
2013-04-29 16:59:00,66.8,39.7,30.14,WSW,257,2.0,2.0,37,0.00,,,0.00,Wunderground v.1.15,2013-04-29 20:59:00,
2013-04-29 17:04:00,66.6,39.5,30.13,West,264,1.0,2.0,37,0.00,,,0.00,Wunderground v.1.15,2013-04-29 21:04:00,
2013-04-29 17:14:00,66.3,38.5,30.13,SSW,210,2.0,3.0,36,0.00,,,0.00,Wunderground v.1.15,2013-04-29 21:14:00,
2013-04-29 17:19:00,66.1,39.1,30.14,ESE,113,2.0,2.0,37,0.00,,,0.00,Wunderground v.1.15,2013-04-29 21:19:00,
2013-04-29 17:24:00,66.0,38.3,30.14,WSW,243,2.0,2.0,36,0.00,,,0.00,Wunderground v.1.15,2013-04-29 21:24:00,
2013-04-29 17:29:00,66.0,38.3,30.14,SW,227,1.0,2.0,36,0.00,,,0.00,Wunderground v.1.15,2013-04-29 21:29:00,
2013-04-29 17:34:00,65.6,37.9,30.14,SE,134,1.0,2.0,36,0.00,,,0.00,Wunderground v.1.15,2013-04-29 21:34:00,
2013-04-29 17:39:00,65.5,37.1,30.14,SE,136,2.0,2.0,35,0.00,,,0.00,Wunderground v.1.15,2013-04-29 21:39:00,
2013-04-29 17:49:00,65.2,36.1,30.14,West,260,2.0,3.0,34,0.00,,,0.00,Wunderground v.1.15,2013-04-29 21:49:00,
2013-04-29 17:54:00,64.8,35.8,30.14,SE,138,1.0,3.0,34,0.00,,,0.00,Wunderground v.1.15,2013-04-29 21:54:00,
2013-04-29 17:59:00,64.7,35.7,30.14,SW,236,2.0,4.0,34,0.00,,,0.00,Wunderground v.1.15,2013-04-29 21:59:00,
2013-04-29 18:09:00,64.2,35.2,30.15,SW,229,2.0,2.0,34,0.00,,,0.00,Wunderground v.1.15,2013-04-29 22:09:00,
2013-04-29 18:14:00,64.2,34.5,30.15,WSW,253,2.0,2.0,33,0.00,,,0.00,Wunderground v.1.15,2013-04-29 22:14:00,
2013-04-29 18:24:00,63.9,35.0,30.15,SW,220,1.0,1.0,34,0.00,,,0.00,Wunderground v.1.15,2013-04-29 22:24:00,
2013-04-29 18:29:00,63.5,34.6,30.15,SW,234,1.0,1.0,34,0.00,,,0.00,Wunderground v.1.15,2013-04-29 22:29:00,
2013-04-29 18:34:00,63.4,33.8,30.15,SW,224,1.0,1.0,33,0.00,,,0.00,Wunderground v.1.15,2013-04-29 22:34:00,
2013-04-29 18:39:00,63.2,33.6,30.15,SSW,208,1.0,1.0,33,0.00,,,0.00,Wunderground v.1.15,2013-04-29 22:39:00,
2013-04-29 18:44:00,63.1,34.3,30.15,South,171,1.0,3.0,34,0.00,,,0.00,Wunderground v.1.15,2013-04-29 22:44:00,
2013-04-29 18:54:00,62.6,33.8,30.15,SW,226,1.0,1.0,34,0.00,,,0.00,Wunderground v.1.15,2013-04-29 22:54:00,
2013-04-29 18:59:00,62.4,33.6,30.15,West,263,1.0,1.0,34,0.00,,,0.00,Wunderground v.1.15,2013-04-29 22:59:00,
2013-04-29 19:04:00,62.3,34.3,30.16,WSW,237,1.0,1.0,35,0.00,,,0.00,Wunderground v.1.15,2013-04-29 23:04:00,
2013-04-29 19:09:00,62.0,33.3,30.16,SSW,210,0.0,0.0,34,0.00,,,0.00,Wunderground v.1.15,2013-04-29 23:09:00,
2013-04-29 19:14:00,61.8,33.8,30.16,SW,226,0.0,0.0,35,0.00,,,0.00,Wunderground v.1.15,2013-04-29 23:14:00,
2013-04-29 19:19:00,61.6,35.1,30.16,SSW,205,0.0,0.0,37,0.00,,,0.00,Wunderground v.1.15,2013-04-29 23:19:00,
2013-04-29 19:29:00,61.2,34.7,30.16,SSE,167,0.0,0.0,37,0.00,,,0.00,Wunderground v.1.15,2013-04-29 23:29:00,
2013-04-29 19:34:00,60.9,35.1,30.16,SSW,200,0.0,0.0,38,0.00,,,0.00,Wunderground v.1.15,2013-04-29 23:34:00,
2013-04-29 19:39:00,60.5,34.7,30.16,SW,229,0.0,0.0,38,0.00,,,0.00,Wunderground v.1.15,2013-04-29 23:39:00,
2013-04-29 19:44:00,60.2,35.8,30.16,SW,229,0.0,0.0,40,0.00,,,0.00,Wunderground v.1.15,2013-04-29 23:44:00,
2013-04-29 19:49:00,60.1,37.5,30.16,SW,229,0.0,0.0,43,0.00,,,0.00,Wunderground v.1.15,2013-04-29 23:49:00,
2013-04-29 19:59:00,59.6,38.2,30.16,SW,229,0.0,0.0,45,0.00,,,0.00,Wunderground v.1.15,2013-04-29 23:59:00,
2013-04-29 20:04:00,59.3,37.4,30.17,SW,229,0.0,0.0,44,0.00,,,0.00,Wunderground v.1.15,2013-04-30 00:04:00,
2013-04-29 20:09:00,59.0,37.1,30.17,SW,229,0.0,0.0,44,0.00,,,0.00,Wunderground v.1.15,2013-04-30 00:09:00,
2013-04-29 20:14:00,58.7,37.4,30.17,SW,230,0.0,0.0,45,0.00,,,0.00,Wunderground v.1.15,2013-04-30 00:14:00,
2013-04-29 20:19:00,58.3,36.5,30.17,SW,230,0.0,0.0,44,0.00,,,0.00,Wunderground v.1.15,2013-04-30 00:19:00,
2013-04-29 20:24:00,57.8,36.0,30.17,SW,230,0.0,0.0,44,0.00,,,0.00,Wunderground v.1.15,2013-04-30 00:24:00,
2013-04-29 20:34:00,57.2,35.5,30.18,SW,230,0.0,0.0,44,0.00,,,0.00,Wunderground v.1.15,2013-04-30 00:34:00,
2013-04-29 20:39:00,56.9,34.6,30.18,SW,230,0.0,0.0,43,0.00,,,0.00,Wunderground v.1.15,2013-04-30 00:39:00,
2013-04-29 20:44:00,56.7,35.6,30.18,SW,230,0.0,0.0,45,0.00,,,0.00,Wunderground v.1.15,2013-04-30 00:44:00,
2013-04-29 20:49:00,56.6,37.1,30.18,SW,230,0.0,0.0,48,0.00,,,0.00,Wunderground v.1.15,2013-04-30 00:49:00,
2013-04-29 20:54:00,56.5,36.5,30.18,SW,230,0.0,0.0,47,0.00,,,0.00,Wunderground v.1.15,2013-04-30 00:54:00,
2013-04-29 21:04:00,56.0,33.8,30.19,SW,230,0.0,0.0,43,0.00,,,0.00,Wunderground v.1.15,2013-04-30 01:04:00,
2013-04-29 21:09:00,55.9,33.7,30.19,SW,230,0.0,0.0,43,0.00,,,0.00,Wunderground v.1.15,2013-04-30 01:09:00,
2013-04-29 21:19:00,55.4,34.4,30.19,SW,230,0.0,0.0,45,0.00,,,0.00,Wunderground v.1.15,2013-04-30 01:19:00,
2013-04-29 21:24:00,55.3,35.9,30.19,SW,230,0.0,0.0,48,0.00,,,0.00,Wunderground v.1.15,2013-04-30 01:24:00,
2013-04-29 21:29:00,55.0,37.2,30.19,SW,230,0.0,0.0,51,0.00,,,0.00,Wunderground v.1.15,2013-04-30 01:29:00,
2013-04-29 21:39:00,54.5,38.7,30.19,SW,230,0.0,0.0,55,0.00,,,0.00,Wunderground v.1.15,2013-04-30 01:39:00,
2013-04-29 21:44:00,54.4,38.6,30.19,SW,230,0.0,0.0,55,0.00,,,0.00,Wunderground v.1.15,2013-04-30 01:44:00,
2013-04-29 21:49:00,54.1,38.3,30.19,SW,230,0.0,0.0,55,0.00,,,0.00,Wunderground v.1.15,2013-04-30 01:49:00,
2013-04-29 21:54:00,53.9,38.1,30.19,SW,230,0.0,0.0,55,0.00,,,0.00,Wunderground v.1.15,2013-04-30 01:54:00,
2013-04-29 21:59:00,53.6,37.8,30.19,SW,230,0.0,0.0,55,0.00,,,0.00,Wunderground v.1.15,2013-04-30 01:59:00,
2013-04-29 22:04:00,53.3,38.0,30.19,SW,230,0.0,0.0,56,0.00,,,0.00,Wunderground v.1.15,2013-04-30 02:04:00,
2013-04-29 22:14:00,52.8,38.9,30.19,SW,230,0.0,0.0,59,0.00,,,0.00,Wunderground v.1.15,2013-04-30 02:14:00,
2013-04-29 22:19:00,52.6,38.7,30.19,SW,230,0.0,0.0,59,0.00,,,0.00,Wunderground v.1.15,2013-04-30 02:19:00,
2013-04-29 22:24:00,52.3,38.8,30.19,SW,230,0.0,0.0,60,0.00,,,0.00,Wunderground v.1.15,2013-04-30 02:24:00,
2013-04-29 22:29:00,52.0,38.5,30.19,SW,230,0.0,0.0,60,0.00,,,0.00,Wunderground v.1.15,2013-04-30 02:29:00,
2013-04-29 22:34:00,51.9,38.4,30.20,SW,230,0.0,0.0,60,0.00,,,0.00,Wunderground v.1.15,2013-04-30 02:34:00,
2013-04-29 22:44:00,51.6,38.6,30.20,SW,230,0.0,0.0,61,0.00,,,0.00,Wunderground v.1.15,2013-04-30 02:44:00,
2013-04-29 22:49:00,51.3,38.7,30.20,SW,230,0.0,0.0,62,0.00,,,0.00,Wunderground v.1.15,2013-04-30 02:49:00,
2013-04-29 22:54:00,51.1,38.5,30.20,SW,230,0.0,0.0,62,0.00,,,0.00,Wunderground v.1.15,2013-04-30 02:54:00,
2013-04-29 22:59:00,51.0,38.0,30.20,SW,230,0.0,0.0,61,0.00,,,0.00,Wunderground v.1.15,2013-04-30 02:59:00,
2013-04-29 23:04:00,50.8,38.2,30.20,SW,230,0.0,0.0,62,0.00,,,0.00,Wunderground v.1.15,2013-04-30 03:04:00,
2013-04-29 23:09:00,50.7,38.1,30.20,SW,230,0.0,0.0,62,0.00,,,0.00,Wunderground v.1.15,2013-04-30 03:09:00,
2013-04-29 23:19:00,50.4,37.4,30.20,SW,230,0.0,0.0,61,0.00,,,0.00,Wunderground v.1.15,2013-04-30 03:19:00,
2013-04-29 23:24:00,50.2,37.3,30.20,SW,230,0.0,0.0,61,0.00,,,0.00,Wunderground v.1.15,2013-04-30 03:24:00,
2013-04-29 23:29:00,49.9,36.1,30.20,SW,230,0.0,0.0,59,0.00,,,0.00,Wunderground v.1.15,2013-04-30 03:29:00,
2013-04-29 23:34:00,49.8,36.9,30.21,SW,230,0.0,0.0,61,0.00,,,0.00,Wunderground v.1.15,2013-04-30 03:34:00,
2013-04-29 23:39:00,49.6,37.9,30.21,SW,230,0.0,0.0,64,0.00,,,0.00,Wunderground v.1.15,2013-04-30 03:39:00,
2013-04-29 23:49:00,49.5,38.2,30.21,SW,230,0.0,0.0,65,0.00,,,0.00,Wunderground v.1.15,2013-04-30 03:49:00,
2013-04-29 23:54:00,49.4,38.1,30.21,SW,230,0.0,0.0,65,0.00,,,0.00,Wunderground v.1.15,2013-04-30 03:54:00,
2013-04-29 23:59:00,49.4,37.3,30.21,SW,230,0.0,0.0,63,0.00,,,0.00,Wunderground v.1.15,2013-04-30 03:59:00,